When you browse on this site, cookies collect data to enhance your experience and personalize the content and advertising you see.
Visit our Privacy Policy to learn more. By continuing to use the site, you agree to this use of cookies and data.
  • In France
  • List of Countries
  • For 7 days
  • Water Temperature
  • Weather Map
  • Weather Widgets
  • user-avatar
    Login

    Hourly Weather Port Said

    Today, 9 December, Monday

    Time Temperature Precipitation Wind Pressure Humidity
    00:00 +15°C° 0.1 mm 6 mps 761 mmHg 86%
    01:00 +15°C° 0.1 mm 5 mps 761 mmHg 88%
    02:00 +15°C° 0 mm 5 mps 760 mmHg 91%
    03:00 +14°C° 0.1 mm 5 mps 760 mmHg 91%
    04:00 +14°C° 0.1 mm 4 mps 760 mmHg 92%
    05:00 +14°C° 0.1 mm 4 mps 760 mmHg 92%
    06:00 +14°C° 0.1 mm 4 mps 761 mmHg 89%
    07:00 +15°C° 0.1 mm 4 mps 761 mmHg 87%
    08:00 +15°C° 0 mm 4 mps 761 mmHg 83%
    09:00 +18°C° 0.2 mm 4 mps 761 mmHg 74%
    10:00 +20°C° 0.2 mm 4 mps 761 mmHg 65%
    11:00 +22°C° 0.2 mm 5 mps 761 mmHg 56%
    12:00 +22°C° 0.3 mm 4 mps 761 mmHg 55%
    13:00 +22°C° 0.3 mm 4 mps 760 mmHg 54%
    14:00 +22°C° 0 mm 5 mps 760 mmHg 53%
    15:00 +21°C° 0.1 mm 5 mps 760 mmHg 55%
    16:00 +21°C° 0.1 mm 5 mps 760 mmHg 58%
    17:00 +20°C° 0.1 mm 5 mps 760 mmHg 60%
    18:00 +20°C° 0 mm 5 mps 760 mmHg 61%
    19:00 +19°C° 0 mm 4 mps 761 mmHg 62%
    20:00 +19°C° 0 mm 4 mps 761 mmHg 63%
    21:00 +19°C° 0 mm 4 mps 761 mmHg 64%
    22:00 +19°C° 0 mm 4 mps 761 mmHg 65%
    23:00 +19°C° 0 mm 3 mps 761 mmHg 66%

    Tomorrow, 10 December, Tuesday

    Time Temperature Precipitation Wind Pressure Humidity
    00:00 +18°C° 0 mm 3 mps 761 mmHg 67%
    01:00 +18°C° 0 mm 3 mps 760 mmHg 68%
    02:00 +17°C° 0 mm 2 mps 760 mmHg 69%
    03:00 +17°C° 0.1 mm 3 mps 760 mmHg 71%
    04:00 +17°C° 0.1 mm 3 mps 760 mmHg 72%
    05:00 +17°C° 0.1 mm 3 mps 760 mmHg 73%
    06:00 +17°C° 0.1 mm 3 mps 760 mmHg 71%
    07:00 +17°C° 0.1 mm 3 mps 760 mmHg 70%
    08:00 +17°C° 0.1 mm 4 mps 761 mmHg 69%
    09:00 +19°C° 0 mm 3 mps 761 mmHg 62%
    10:00 +20°C° 0 mm 3 mps 761 mmHg 55%
    11:00 +22°C° 0 mm 3 mps 761 mmHg 48%
    12:00 +22°C° 0 mm 3 mps 760 mmHg 46%
    13:00 +24°C° 0 mm 3 mps 759 mmHg 43%
    14:00 +25°C° 0 mm 2 mps 759 mmHg 41%
    15:00 +24°C° 0 mm 3 mps 759 mmHg 43%
    16:00 +23°C° 0 mm 4 mps 759 mmHg 44%
    17:00 +22°C° 0 mm 4 mps 760 mmHg 45%
    18:00 +21°C° 0.1 mm 5 mps 760 mmHg 48%
    19:00 +21°C° 0.1 mm 5 mps 760 mmHg 51%
    20:00 +20°C° 0.1 mm 6 mps 760 mmHg 54%
    21:00 +19°C° 0 mm 6 mps 760 mmHg 55%
    22:00 +19°C° 0 mm 6 mps 760 mmHg 57%
    23:00 +19°C° 0 mm 6 mps 760 mmHg 58%

    Day after tomorrow, 11 December, Wednesday

    Time Temperature Precipitation Wind Pressure Humidity
    00:00 +17°C° 0 mm 6 mps 760 mmHg 58%
    01:00 +17°C° 0 mm 5 mps 759 mmHg 58%
    02:00 +17°C° 0 mm 5 mps 759 mmHg 58%
    03:00 +17°C° 0 mm 5 mps 759 mmHg 57%
    04:00 +17°C° 0 mm 5 mps 759 mmHg 56%
    05:00 +16°C° 0 mm 5 mps 759 mmHg 54%
    06:00 +17°C° 0 mm 5 mps 759 mmHg 53%
    07:00 +17°C° 0 mm 5 mps 759 mmHg 53%
    08:00 +19°C° 0 mm 5 mps 759 mmHg 52%
    09:00 +20°C° 0 mm 5 mps 759 mmHg 48%
    10:00 +21°C° 0 mm 5 mps 759 mmHg 44%
    11:00 +23°C° 0 mm 6 mps 759 mmHg 40%
    12:00 +23°C° 0 mm 6 mps 759 mmHg 36%
    13:00 +23°C° 0 mm 6 mps 758 mmHg 33%
    14:00 +25°C° 0 mm 5 mps 758 mmHg 29%
    15:00 +23°C° 0 mm 5 mps 758 mmHg 30%
    16:00 +22°C° 0 mm 4 mps 757 mmHg 32%
    17:00 +21°C° 0 mm 4 mps 757 mmHg 33%
    18:00 +20°C° 0 mm 4 mps 758 mmHg 39%
    19:00 +19°C° 0 mm 4 mps 758 mmHg 44%
    20:00 +19°C° 0 mm 4 mps 758 mmHg 50%
    21:00 +18°C° 0 mm 4 mps 758 mmHg 53%
    22:00 +18°C° 0 mm 3 mps 758 mmHg 56%
    23:00 +17°C° 0 mm 3 mps 758 mmHg 59%

    12 December, Thursday

    Time Temperature Precipitation Wind Pressure Humidity
    00:00 +17°C° 0 mm 3 mps 758 mmHg 59%
    01:00 +17°C° 0 mm 3 mps 757 mmHg 60%
    02:00 +17°C° 0 mm 3 mps 757 mmHg 60%
    03:00 +17°C° 0 mm 4 mps 757 mmHg 61%
    04:00 +16°C° 0 mm 5 mps 757 mmHg 62%
    05:00 +15°C° 0 mm 5 mps 756 mmHg 62%
    06:00 +15°C° 0 mm 5 mps 757 mmHg 58%
    07:00 +16°C° 0 mm 5 mps 757 mmHg 54%
    08:00 +16°C° 0 mm 5 mps 757 mmHg 49%
    09:00 +17°C° 0 mm 6 mps 757 mmHg 42%
    10:00 +20°C° 0 mm 7 mps 757 mmHg 34%
    11:00 +22°C° 0 mm 8 mps 757 mmHg 27%
    12:00 +22°C° 0 mm 8 mps 757 mmHg 29%
    13:00 +21°C° 0 mm 8 mps 757 mmHg 32%
    14:00 +21°C° 0 mm 8 mps 756 mmHg 34%
    15:00 +21°C° 0 mm 9 mps 756 mmHg 34%
    16:00 +19°C° 0 mm 9 mps 757 mmHg 34%
    17:00 +18°C° 0 mm 9 mps 757 mmHg 34%
    18:00 +17°C° 0 mm 8 mps 757 mmHg 38%
    19:00 +16°C° 0 mm 8 mps 757 mmHg 42%
    20:00 +15°C° 0 mm 7 mps 758 mmHg 47%
    21:00 +15°C° 0 mm 7 mps 758 mmHg 50%
    22:00 +13°C° 0 mm 8 mps 758 mmHg 53%
    23:00 +13°C° 0 mm 8 mps 758 mmHg 56%

    13 December, Friday

    Time Temperature Precipitation Wind Pressure Humidity
    00:00 +13°C° 0 mm 8 mps 758 mmHg 58%
    01:00 +13°C° 0 mm 8 mps 758 mmHg 59%
    02:00 +13°C° 0 mm 8 mps 758 mmHg 61%
    03:00 +13°C° 0 mm 8 mps 758 mmHg 63%
    04:00 +12°C° 0 mm 8 mps 758 mmHg 65%
    05:00 +12°C° 0 mm 8 mps 758 mmHg 67%
    06:00 +12°C° 0 mm 8 mps 759 mmHg 67%
    07:00 +13°C° 0 mm 8 mps 759 mmHg 68%
    08:00 +13°C° 0 mm 9 mps 760 mmHg 68%
    09:00 +16°C° 0 mm 8 mps 760 mmHg 61%
    10:00 +18°C° 0 mm 8 mps 760 mmHg 55%
    11:00 +21°C° 0 mm 8 mps 760 mmHg 48%
    12:00 +21°C° 0 mm 8 mps 759 mmHg 44%
    13:00 +22°C° 0 mm 8 mps 759 mmHg 40%
    14:00 +23°C° 0 mm 7 mps 759 mmHg 36%
    15:00 +22°C° 0 mm 7 mps 759 mmHg 37%
    16:00 +21°C° 0 mm 7 mps 759 mmHg 38%
    17:00 +20°C° 0 mm 7 mps 759 mmHg 39%
    18:00 +18°C° 0 mm 7 mps 759 mmHg 42%
    19:00 +17°C° 0 mm 7 mps 760 mmHg 45%
    20:00 +16°C° 0 mm 7 mps 760 mmHg 47%
    21:00 +15°C° 0 mm 7 mps 760 mmHg 50%
    22:00 +14°C° 0 mm 7 mps 760 mmHg 53%
    23:00 +14°C° 0 mm 7 mps 760 mmHg 55%

    14 December, Saturday

    Time Temperature Precipitation Wind Pressure Humidity
    00:00 +14°C° 0 mm 7 mps 760 mmHg 58%
    01:00 +14°C° 0 mm 7 mps 760 mmHg 60%
    02:00 +14°C° 0 mm 6 mps 760 mmHg 62%
    03:00 +14°C° 0 mm 7 mps 760 mmHg 63%
    04:00 +14°C° 0 mm 7 mps 760 mmHg 63%
    05:00 +14°C° 0 mm 7 mps 760 mmHg 63%
    06:00 +14°C° 0 mm 7 mps 760 mmHg 57%
    07:00 +14°C° 0 mm 7 mps 761 mmHg 52%
    08:00 +15°C° 0 mm 7 mps 761 mmHg 46%
    09:00 +16°C° 0 mm 8 mps 761 mmHg 40%
    10:00 +18°C° 0 mm 8 mps 761 mmHg 33%
    11:00 +21°C° 0 mm 8 mps 761 mmHg 27%
    12:00 +21°C° 0 mm 8 mps 761 mmHg 28%
    13:00 +22°C° 0 mm 8 mps 761 mmHg 29%
    14:00 +23°C° 0 mm 8 mps 760 mmHg 29%
    15:00 +22°C° 0 mm 8 mps 760 mmHg 31%
    16:00 +21°C° 0 mm 7 mps 760 mmHg 33%
    17:00 +20°C° 0 mm 7 mps 761 mmHg 35%
    18:00 +18°C° 0 mm 7 mps 761 mmHg 38%
    19:00 +16°C° 0 mm 7 mps 761 mmHg 42%
    20:00 +15°C° 0 mm 7 mps 761 mmHg 45%
    21:00 +15°C° 0 mm 7 mps 761 mmHg 47%
    22:00 +13°C° 0 mm 8 mps 762 mmHg 50%
    23:00 +13°C° 0 mm 8 mps 762 mmHg 52%
    Show more